Theta_e
352 348 344 343 340 339 339 340 339 338 338 337 337 336 335 333 333 333 337 339 341 344 344 344 344 344 343 340 334 332 332 338 341 342 344 344 344 345 345 345 346 346 346 346 345 345 343 342 341 340 335 331 329 325 326 329 330 332 333 333 333 334 333 333 332 333 335 335 336 337 337 337 335 330 326 327 328 329 330 331 332 333 332 330 331
352 347 346 343 341 341 341 341 340 340 338 337 336 335 333 331 332 336 341 342 343 344 343 342 343 341 339 337 335 336 337 339 341 343 344 344 344 344 345 345 345 346 345 345 344 342 339 336 334 331 327 326 326 325 328 331 330 331 332 333 333 333 333 334 334 333 333 333 336 337 336 336 333 326 323 325 328 329 330 330 331 330 330 330 331
351 347 347 345 342 342 341 341 340 339 337 337 336 334 332 330 331 336 340 339 340 341 340 341 341 341 340 341 342 341 341 341 342 343 343 343 344 345 346 345 345 345 345 344 340 334 329 328 327 324 321 322 324 326 329 330 330 332 331 332 332 333 334 335 335 334 333 334 335 336 337 336 331 325 323 325 328 329 328 328 329 330 330 330 330
352 350 349 347 345 343 341 340 338 337 337 337 335 333 330 330 332 334 336 335 336 336 339 340 341 342 341 342 342 342 342 342 342 342 343 343 344 345 346 345 345 345 343 340 331 323 323 326 324 322 321 322 324 327 330 330 331 331 331 331 332 334 335 335 336 335 334 334 335 338 338 336 331 326 323 325 327 326 325 326 328 330 331 330 331
349 351 350 349 348 346 342 340 337 337 337 337 334 333 333 333 335 336 337 337 338 338 339 340 341 342 341 342 342 342 342 343 343 342 343 345 345 345 346 345 345 344 339 330 322 322 327 326 323 324 324 324 326 329 331 330 330 329 330 332 334 335 335 336 336 336 336 336 336 338 339 337 333 328 326 324 325 325 324 325 327 330 331 332 333
349 352 351 350 349 345 342 339 337 339 339 336 334 335 337 337 338 340 340 341 340 341 341 341 341 342 342 340 340 341 341 343 343 342 342 344 345 345 345 345 344 338 329 322 322 328 330 329 329 330 329 328 329 330 329 328 328 330 332 334 335 334 334 336 337 337 337 338 339 338 339 338 334 330 328 327 327 329 329 328 328 329 331 332 333
351 351 351 351 348 344 341 338 338 342 340 335 334 335 336 337 340 342 341 342 341 341 342 342 342 342 340 338 340 341 342 342 342 343 343 343 345 346 345 344 338 328 322 321 327 331 332 333 333 333 331 330 329 328 327 327 330 333 335 335 334 334 335 336 337 338 338 340 341 340 338 338 336 330 328 329 331 332 332 331 329 328 330 332 332
351 350 351 351 348 343 341 339 340 342 340 333 330 331 334 337 340 341 342 341 342 342 341 342 341 341 340 340 342 342 342 342 342 343 342 342 345 346 345 343 333 322 321 325 331 333 332 333 333 332 330 329 328 327 326 327 329 332 334 334 333 334 335 336 336 338 339 341 341 339 338 338 336 332 331 332 333 333 333 332 329 327 330 332 332
350 349 350 350 346 343 342 343 342 340 336 330 327 329 332 337 339 341 342 341 342 341 341 341 341 341 342 341 342 342 342 342 342 342 342 342 344 346 345 344 335 324 323 328 332 332 332 332 331 330 328 328 327 326 326 326 326 328 330 332 333 334 335 335 337 340 341 343 341 338 337 339 337 333 333 334 334 333 332 331 328 327 331 332 332
349 349 350 350 347 344 344 344 341 337 333 329 331 333 335 339 340 341 342 341 342 341 340 340 341 341 342 342 342 342 341 340 341 342 342 343 345 345 345 344 340 330 325 328 330 329 330 330 329 329 328 328 327 326 326 326 325 326 327 329 333 335 336 336 338 340 340 339 337 337 338 338 336 333 333 334 334 333 332 330 328 328 329 331 331
349 350 350 350 348 344 343 342 339 336 332 333 338 340 340 341 340 340 341 341 341 340 340 340 341 341 341 342 342 341 340 341 341 342 343 344 345 345 345 344 344 337 327 326 327 328 328 328 328 327 328 328 327 326 326 326 326 326 325 328 333 334 336 336 338 340 337 337 336 338 339 337 334 331 333 335 333 331 330 329 327 326 326 329 329
349 350 350 350 347 343 340 338 336 334 334 337 341 342 340 340 340 341 341 341 340 341 341 341 341 340 341 341 340 340 340 340 341 342 342 345 345 344 345 344 345 342 331 325 325 326 325 325 326 325 326 327 327 327 326 326 326 326 325 326 330 334 335 335 338 339 337 337 338 338 337 335 331 331 334 336 333 329 328 328 327 325 326 328 330
349 350 349 347 346 341 338 337 336 335 338 340 341 341 339 339 341 341 341 340 340 341 341 341 341 340 341 340 339 339 339 339 339 339 340 344 345 344 345 344 344 343 338 332 328 325 324 324 324 324 325 326 326 326 326 326 326 326 325 324 327 332 335 335 338 338 337 338 338 338 335 332 330 331 335 336 334 331 329 330 330 329 328 328 329
349 349 348 346 343 340 340 338 337 339 341 342 341 341 340 340 341 341 341 341 340 341 341 341 340 340 340 340 338 339 339 339 338 336 337 342 344 344 345 344 343 343 341 337 330 325 323 324 324 324 325 325 325 326 326 326 325 325 325 324 324 330 333 333 338 337 337 338 338 337 333 332 331 331 334 336 336 333 332 331 331 331 329 328 329
348 348 348 346 343 343 343 339 338 341 341 340 340 341 342 342 341 341 341 341 340 340 340 341 339 339 340 339 339 340 339 339 338 337 338 342 344 345 344 343 343 341 337 331 325 323 322 323 324 324 325 325 325 324 325 323 324 324 324 324 322 327 330 329 335 338 337 337 337 337 334 333 332 331 332 335 336 335 334 332 331 330 330 329 329
347 347 348 346 345 344 343 340 341 341 340 340 341 341 342 342 341 341 341 340 340 339 340 340 340 340 340 339 340 341 340 341 341 341 342 344 343 344 344 343 343 338 330 324 322 322 321 322 323 323 324 325 325 325 324 324 324 324 323 324 321 323 328 328 332 337 337 337 337 338 335 333 333 332 331 333 335 336 335 333 331 330 330 329 328
347 347 347 346 346 345 344 343 342 340 339 340 340 340 341 341 341 340 340 340 340 340 340 340 340 341 340 340 341 342 342 343 343 343 344 344 343 343 344 343 341 334 329 326 322 320 319 319 320 322 324 324 325 326 325 324 323 323 322 322 321 321 324 326 330 335 337 336 338 339 335 332 334 333 332 332 333 334 334 333 332 331 330 329 328
347 348 347 346 346 345 345 343 342 342 341 339 339 338 338 338 338 338 337 337 338 340 340 340 340 340 340 340 341 343 343 343 343 344 343 343 343 343 343 342 338 333 331 332 329 326 323 321 320 320 321 323 324 324 324 324 324 324 322 321 321 320 322 325 330 334 336 336 337 337 333 331 333 334 333 333 332 333 333 332 331 331 330 329 328
347 347 347 346 346 345 344 343 343 344 342 340 339 338 337 337 335 334 334 333 335 338 339 339 339 339 340 340 340 342 343 343 343 343 343 343 343 342 342 341 337 334 334 336 334 333 332 330 327 324 324 325 327 327 326 328 329 328 325 324 323 321 326 330 333 335 335 337 337 334 331 331 332 333 334 333 333 333 333 331 329 329 329 329 327
346 345 346 346 345 345 344 343 345 344 343 342 341 339 338 337 335 333 331 331 333 335 336 336 338 339 339 339 339 341 341 341 343 343 343 341 342 342 341 339 336 336 335 334 331 328 328 329 328 329 329 329 330 330 330 331 330 329 326 325 325 326 331 334 335 335 335 337 337 333 330 331 330 331 334 333 333 333 334 332 330 330 330 330 327
345 344 344 345 344 344 345 345 345 345 344 343 341 340 337 337 336 334 331 331 332 330 329 329 332 336 336 336 338 340 338 338 341 340 341 340 341 342 340 338 336 333 331 329 326 323 321 319 320 322 324 325 328 329 330 331 329 330 329 327 330 334 335 336 335 333 334 336 336 333 331 330 329 329 332 334 334 333 334 333 332 332 331 331 329
344 343 342 343 344 344 345 345 344 345 345 344 343 337 335 337 336 334 332 331 330 327 325 326 330 335 336 338 340 340 338 339 339 336 338 335 333 335 333 331 330 327 329 328 324 322 321 319 318 319 319 322 325 329 331 334 334 334 336 336 337 338 337 337 336 333 334 336 334 333 331 329 329 328 331 333 334 333 334 334 333 332 332 331 330
343 342 342 342 344 344 344 345 344 345 345 346 342 334 337 340 336 335 333 329 331 333 334 335 336 339 341 342 342 342 341 342 339 338 338 329 321 324 323 324 327 329 333 333 328 329 331 328 328 329 328 327 328 332 336 339 340 338 339 340 339 339 339 338 337 335 336 336 335 334 332 329 328 328 329 331 334 334 333 334 334 333 333 332 331
342 342 343 343 344 345 344 343 343 344 344 346 341 337 343 344 341 341 336 332 337 342 343 342 341 342 343 343 343 343 343 342 341 343 340 329 322 322 324 328 332 334 337 338 336 337 340 337 337 338 337 336 335 337 339 340 341 340 340 340 340 340 339 339 338 337 337 337 336 335 333 330 328 328 329 330 333 334 334 334 334 334 333 333 332
342 342 344 344 344 344 344 343 344 345 343 345 343 343 345 343 343 344 341 340 342 345 346 345 345 344 344 345 344 345 344 342 342 343 340 337 334 331 334 337 338 340 340 341 342 342 343 341 340 340 339 339 340 341 341 340 340 340 340 340 340 340 340 339 338 338 338 338 337 337 335 332 330 328 329 329 332 334 334 334 334 334 334 333 333
343 343 344 345 343 343 344 344 344 345 343 344 344 344 344 343 344 344 343 344 344 345 346 345 346 345 345 346 345 345 345 342 340 341 341 342 342 341 342 342 343 344 344 342 343 344 344 342 342 342 340 340 340 340 339 339 338 338 339 339 339 339 340 339 339 338 338 339 339 337 337 336 334 331 330 329 330 334 334 334 334 334 334 334 334
344 345 345 344 343 343 344 344 343 344 343 343 343 344 343 342 343 343 344 344 344 345 346 346 346 346 346 346 345 344 345 342 342 343 343 344 344 345 344 344 345 345 344 344 343 344 343 341 341 341 340 339 339 338 337 339 339 338 338 337 338 338 338 338 339 338 338 339 338 339 338 337 337 335 333 330 329 332 334 335 335 335 335 335 336
345 345 346 345 344 344 343 343 344 344 344 344 344 344 343 342 344 343 344 343 344 344 344 345 345 346 346 345 345 344 344 344 345 346 345 346 345 346 345 345 345 344 344 344 343 342 342 342 340 339 340 339 338 338 337 338 338 338 337 337 336 336 337 337 337 337 337 338 338 339 338 337 338 338 335 331 329 331 332 335 336 337 337 336 337
346 346 345 345 344 344 343 342 343 343 343 344 343 344 344 344 343 343 343 343 344 344 344 344 344 346 347 346 345 345 345 345 346 346 346 345 346 346 346 345 345 343 343 343 342 343 342 342 340 340 341 339 339 338 338 338 338 338 337 337 336 336 336 337 336 336 337 337 338 339 338 337 338 338 337 332 330 329 331 333 336 339 339 339 338
346 346 346 346 345 343 343 342 342 343 341 343 343 344 344 344 345 343 343 344 343 344 345 344 344 346 346 346 346 346 346 345 346 346 345 345 346 346 346 344 344 343 343 342 342 342 342 341 341 341 340 340 340 339 340 339 338 338 337 336 336 336 336 336 336 336 335 335 336 337 337 337 337 338 338 336 333 330 331 331 335 339 340 340 339
347 347 346 347 346 343 344 343 343 342 340 342 344 344 345 345 345 344 343 344 343 344 344 344 344 344 345 345 346 347 346 346 346 346 345 345 345 345 345 344 343 343 340 341 342 341 341 340 340 340 340 340 341 341 340 338 339 338 336 336 335 335 335 335 335 336 335 334 334 335 337 338 337 337 339 338 337 333 330 331 332 336 339 340 340
347 346 346 346 346 345 345 344 343 343 342 342 344 344 345 345 345 344 344 344 344 345 345 345 344 344 345 344 345 347 346 347 346 346 345 345 345 344 345 344 343 343 340 341 342 340 339 340 341 341 342 341 341 341 339 339 339 337 336 336 334 335 335 334 335 334 334 333 333 334 337 340 338 337 338 339 339 337 334 332 332 333 336 338 339
346 345 346 347 346 346 345 345 344 343 343 343 344 344 345 346 346 345 344 343 344 346 346 346 345 344 345 344 344 346 347 347 347 346 346 345 345 345 345 344 343 344 344 341 340 340 341 342 342 342 342 341 340 340 339 338 339 337 336 334 335 337 335 334 334 333 332 332 333 333 335 339 340 339 338 338 339 339 338 335 333 333 334 337 339
346 345 346 349 346 345 345 346 345 343 343 343 343 344 345 346 346 346 344 344 345 347 346 345 346 345 345 345 345 347 347 348 348 347 347 345 345 346 345 344 342 343 345 341 340 343 342 342 341 341 341 340 339 339 338 338 338 336 335 334 335 337 334 333 332 331 330 330 333 334 333 336 339 339 340 340 339 339 339 339 337 335 334 335 337
348 345 347 349 346 346 346 346 345 345 344 343 344 344 344 345 346 347 345 345 346 346 345 344 346 346 346 346 346 349 349 348 349 348 347 345 345 346 345 343 343 344 343 342 342 342 343 342 342 342 342 341 340 339 339 338 338 336 335 333 334 333 329 330 331 330 329 330 333 334 335 336 337 338 339 340 339 339 339 339 339 338 337 335 334
349 347 346 347 347 346 346 346 344 345 345 344 345 343 344 344 345 347 345 346 346 345 344 344 346 346 347 347 346 348 350 349 349 349 348 347 346 346 346 344 345 344 344 345 343 341 344 344 343 343 342 341 340 341 340 339 338 335 333 333 333 331 328 330 331 331 331 332 333 332 334 336 336 338 340 340 341 341 339 339 340 340 339 338 335
351 349 347 347 347 346 346 346 345 345 345 345 345 345 345 345 345 347 345 346 346 345 344 344 345 346 346 347 347 346 349 350 349 349 348 349 347 344 345 345 345 346 345 346 344 342 344 344 344 343 342 342 341 342 342 340 337 333 333 332 333 332 330 330 330 333 333 331 331 330 331 335 335 337 339 340 341 340 340 340 340 340 340 339 338
352 351 348 348 348 347 346 345 345 345 346 345 345 345 346 346 346 347 346 346 346 345 344 343 345 345 346 346 347 347 347 349 349 349 348 349 348 345 344 345 345 346 346 347 346 343 344 344 344 343 342 343 342 342 341 339 336 332 332 332 333 332 333 333 330 333 334 329 328 329 330 333 335 336 336 338 340 339 340 340 339 340 339 339 340
353 352 350 348 349 348 347 346 346 346 346 346 345 346 347 347 347 347 347 347 347 346 343 343 344 344 345 345 346 347 347 349 350 349 349 349 348 345 342 342 342 344 345 347 347 344 343 344 344 342 342 343 342 341 340 338 333 329 331 333 331 330 333 336 331 331 332 326 325 328 329 330 333 334 333 334 335 336 338 338 338 339 340 338 339
353 355 352 351 350 349 348 347 347 347 347 347 346 346 347 347 348 347 348 348 348 348 345 345 344 344 345 345 345 346 347 348 349 349 349 349 347 344 342 341 340 339 340 344 346 344 343 344 344 342 342 342 342 341 340 336 328 327 332 330 327 328 334 336 334 334 331 326 326 330 330 328 330 332 329 327 327 330 332 333 335 337 338 339 339
354 355 355 353 351 351 349 349 348 348 348 348 348 347 347 348 348 348 348 349 349 349 348 347 346 345 344 345 345 346 347 347 349 349 349 349 346 343 343 341 340 337 336 341 343 344 344 344 343 342 342 341 340 340 339 333 326 330 332 326 323 328 334 336 335 337 331 327 329 329 328 328 328 328 326 325 323 325 327 327 330 332 333 335 336
355 355 356 355 353 352 351 350 350 350 350 349 349 348 348 348 348 349 349 349 350 349 349 348 347 347 346 346 345 346 348 348 349 348 347 348 345 344 343 341 341 338 336 337 338 341 345 344 342 342 341 341 339 338 337 332 326 330 329 328 332 331 333 336 338 337 330 327 328 328 327 326 326 325 324 324 323 325 326 324 326 327 327 327 329
357 357 356 356 354 354 352 352 351 351 351 350 350 349 348 349 348 348 349 350 351 350 349 348 348 348 346 345 344 343 344 345 346 344 344 347 345 344 344 342 340 337 336 337 339 341 343 343 342 341 339 340 339 335 334 331 326 327 329 335 342 340 339 339 334 330 327 328 327 328 328 324 326 327 324 324 325 326 325 323 325 325 325 324 324
358 357 357 357 356 355 355 353 352 352 352 351 351 350 348 349 348 348 349 349 350 350 349 347 345 343 341 342 342 342 342 343 342 342 343 346 346 344 343 342 340 338 337 339 341 343 344 343 341 340 338 339 340 335 333 331 325 327 335 339 338 337 342 338 326 324 328 329 327 328 328 325 326 327 324 326 327 327 326 325 326 325 324 323 323
357 357 357 357 355 355 350 350 352 352 352 352 351 350 350 349 348 349 350 351 351 347 342 341 340 340 341 343 344 344 343 342 341 340 341 344 346 345 343 342 342 341 338 338 341 343 343 343 341 340 338 337 340 338 334 333 328 325 331 337 336 336 340 333 326 330 330 326 327 328 327 326 328 326 324 325 328 328 328 328 327 325 324 323 322
355 355 355 351 349 346 342 346 350 349 349 350 350 350 350 349 349 350 350 349 346 339 336 338 340 340 340 342 343 343 343 343 342 341 341 343 345 345 344 343 341 341 341 340 342 342 342 342 340 339 337 336 339 339 336 333 330 326 325 330 333 335 335 330 331 336 330 324 326 327 327 327 327 326 325 326 328 326 328 329 327 325 325 323 322
353 353 351 345 341 338 339 346 347 345 346 349 349 348 348 350 350 347 344 340 337 337 340 341 341 340 340 341 342 343 342 342 343 342 341 343 344 345 344 342 340 340 341 342 343 342 341 340 340 339 337 337 338 337 336 333 330 328 326 327 327 327 327 328 333 335 332 330 327 325 327 327 327 326 326 327 327 325 326 327 325 325 325 323 323
352 352 348 341 338 337 340 345 344 342 345 348 348 346 345 348 348 346 343 341 340 340 342 341 341 342 341 340 341 342 342 341 342 343 343 343 344 345 344 342 340 340 341 342 342 341 340 339 340 340 337 337 337 335 335 335 332 330 328 328 328 327 326 327 330 330 333 334 332 329 328 326 325 326 326 327 326 326 327 325 324 325 324 324 326
351 351 346 338 337 338 341 344 341 340 344 347 348 347 346 347 348 347 346 346 345 343 342 342 341 341 341 341 341 342 343 342 342 343 343 343 345 345 345 343 341 340 340 341 342 341 340 339 339 339 338 337 336 334 332 333 333 331 330 329 327 327 327 327 328 329 331 334 334 333 329 326 326 325 325 326 325 326 326 325 325 325 325 326 325
352 351 346 338 337 338 340 341 340 338 343 347 348 347 345 345 346 344 345 346 346 344 341 341 341 340 340 341 341 341 343 344 344 345 344 343 343 344 344 343 341 340 340 341 341 341 340 340 339 339 338 336 335 334 331 330 331 331 331 330 327 327 328 328 329 329 330 332 332 331 328 327 328 326 325 325 325 326 324 324 326 325 325 325 321
353 351 345 337 336 339 339 340 339 338 341 344 346 345 344 344 344 343 343 344 344 342 339 338 339 339 339 340 340 340 342 344 344 344 343 342 341 341 341 340 340 340 340 340 341 341 340 340 340 340 337 336 334 333 331 328 328 329 328 330 329 328 329 330 329 327 328 329 330 331 327 325 327 326 324 324 324 323 322 325 326 325 325 322 319
Wind_Speed
19 22 22 20 20 18 17 15 14 13 12 11 11 11 10 10 11 11 11 13 14 14 13 13 12 12 12 12 13 14 16 16 15 15 15 13 13 12 12 12 11 12 12 13 12 12 11 10 9 8 8 8 9 11 13 12 11 11 11 11 11 11 11 11 10 10 10 10 10 9 9 10 10 11 11 11 11 11 10 10 9 9 8 7 8
21 23 23 21 20 18 17 15 14 13 12 12 11 11 11 11 11 11 12 13 14 14 14 13 13 13 13 14 14 15 15 14 13 13 13 12 11 11 11 11 11 11 12 13 12 11 9 8 8 8 9 10 11 12 13 11 9 8 9 9 9 10 9 9 8 8 8 8 8 8 9 9 10 11 10 11 11 11 11 13 13 10 9 9 8
24 24 22 21 19 18 16 15 14 13 13 13 12 12 12 12 12 12 13 13 14 14 14 14 14 14 14 14 13 13 13 12 11 11 11 11 10 10 10 10 11 12 13 12 10 8 8 9 10 11 12 13 13 12 11 9 7 7 7 7 8 9 9 8 7 6 6 6 6 6 8 9 10 11 10 10 10 9 9 11 13 12 10 8 8
22 22 20 20 18 17 16 15 14 14 14 13 13 13 13 13 13 13 13 14 15 15 14 14 14 14 13 13 13 12 12 12 12 12 11 10 10 9 9 10 11 12 13 11 9 8 10 12 13 14 14 15 13 12 10 8 7 6 6 7 8 9 9 8 6 5 4 5 5 5 7 7 10 11 9 8 8 8 7 7 10 11 9 8 8
19 19 19 19 17 16 15 15 15 14 14 14 13 13 13 13 13 14 14 14 14 14 14 13 14 13 13 12 12 12 12 12 11 11 10 9 9 9 9 11 12 13 11 9 9 11 12 13 14 14 14 14 12 11 8 7 6 6 6 7 8 9 8 8 6 4 3 3 3 4 6 6 8 11 10 8 8 9 10 9 9 9 9 8 7
20 18 18 18 16 16 15 16 16 14 14 14 14 13 13 14 14 14 14 15 14 14 13 13 14 13 13 12 12 12 12 12 11 9 9 9 8 9 10 12 13 11 10 9 11 12 13 13 13 13 13 13 11 9 7 7 6 6 7 8 8 8 8 8 6 4 2 1 0 3 6 6 6 9 9 8 9 10 10 9 8 7 8 7 6
24 21 18 16 16 16 16 16 16 14 14 14 14 13 13 13 14 14 14 15 14 14 13 13 13 13 12 12 12 12 12 13 11 8 8 8 9 10 11 14 12 11 10 11 12 13 13 12 13 13 12 11 9 8 7 7 7 8 8 8 8 7 7 8 7 5 3 2 2 3 5 7 6 8 9 9 9 9 8 7 6 6 6 7 6
24 23 19 17 16 16 17 16 15 14 14 14 14 13 13 13 14 14 14 14 14 13 13 14 13 13 12 11 11 11 12 12 10 9 7 7 9 11 12 13 11 11 12 12 12 12 13 12 12 12 10 9 7 7 7 7 8 9 8 8 8 7 7 8 9 9 8 6 5 3 3 7 5 8 9 8 7 8 7 5 5 7 7 8 7
21 21 20 17 17 18 17 17 15 14 14 14 14 13 13 13 13 14 14 13 13 13 13 13 13 13 11 11 11 11 11 10 9 9 8 7 9 11 12 12 11 11 12 12 12 12 12 11 11 9 8 7 6 6 6 7 8 8 9 8 8 8 8 10 12 13 11 11 8 1 7 9 6 8 9 8 7 6 6 5 6 8 8 9 7
18 19 19 16 17 18 17 17 16 15 15 15 14 13 13 13 13 13 13 14 13 13 13 13 13 11 9 11 11 10 10 9 9 9 8 8 9 11 11 12 11 10 11 11 10 10 10 9 9 8 6 5 5 5 5 6 7 7 8 8 8 8 8 11 13 12 7 6 6 9 11 10 7 7 9 8 7 5 5 7 8 7 7 8 6
17 18 19 17 17 18 18 17 16 16 15 14 14 13 13 13 13 13 13 13 13 13 13 12 11 10 9 10 10 9 9 8 9 8 8 8 9 10 10 11 11 10 9 10 9 9 8 7 7 7 6 4 4 3 3 4 5 6 7 8 7 7 7 10 11 9 5 8 13 13 12 8 5 6 9 8 6 5 4 7 6 4 4 5 5
16 18 18 17 18 17 18 17 16 15 15 14 14 13 13 13 13 13 13 13 13 13 12 11 10 9 9 9 9 9 8 8 8 8 8 8 8 9 9 10 10 9 8 8 8 7 7 6 5 6 5 4 3 2 2 3 4 5 6 7 7 6 7 9 9 6 6 11 14 13 10 6 5 7 9 7 5 7 6 6 4 3 3 4 3
17 18 17 16 17 17 16 16 15 14 15 14 13 14 13 13 13 13 13 13 13 12 11 10 9 9 9 8 9 9 8 8 8 7 8 8 8 9 9 9 9 9 7 7 6 6 6 5 4 4 4 3 2 1 1 2 3 5 6 6 6 6 6 9 8 4 10 13 13 11 7 7 7 7 9 7 5 8 8 6 5 4 3 3 3
18 17 15 15 17 17 16 16 15 14 14 13 13 13 13 13 13 13 13 13 13 12 11 10 8 9 9 8 9 8 8 7 6 6 7 7 7 8 9 9 9 8 6 5 4 4 4 4 3 2 2 2 1 1 1 2 3 4 6 6 7 6 6 9 6 6 12 13 12 9 6 9 8 6 8 7 5 6 7 6 5 3 3 3 3
18 15 15 15 17 15 15 15 14 14 13 13 13 13 13 13 13 13 13 13 12 12 11 9 8 10 9 9 9 8 7 7 6 7 7 7 7 8 9 9 8 7 5 4 3 3 3 3 3 2 1 2 2 2 3 3 4 5 6 6 7 6 6 8 4 6 11 12 12 9 7 9 8 7 7 7 6 4 4 5 4 3 3 3 2
17 16 16 15 16 14 14 15 13 13 13 13 13 14 14 13 13 13 13 13 12 11 11 10 10 10 9 10 10 8 8 7 8 8 8 8 8 9 9 8 6 5 3 2 2 2 3 3 3 3 3 3 3 4 4 4 5 5 6 6 7 5 6 7 4 2 7 11 11 7 6 9 8 7 7 7 7 5 4 4 3 2 3 3 2
17 16 16 16 16 15 14 13 14 13 13 13 13 14 14 14 14 13 13 12 13 12 10 11 11 10 9 10 10 9 8 8 9 9 9 9 10 10 8 7 5 3 2 2 1 1 2 3 3 4 3 4 4 4 5 5 6 6 7 6 6 6 5 6 5 2 4 8 10 8 5 9 8 7 7 7 7 6 5 3 3 3 2 2 1
18 17 16 17 16 15 15 14 14 14 13 13 12 14 14 14 14 13 12 12 14 13 11 11 10 10 9 9 10 9 9 9 10 10 9 10 9 8 7 5 4 3 2 2 1 1 0 1 2 3 3 3 4 4 5 6 7 7 7 6 6 6 5 5 6 2 3 7 11 8 5 8 7 7 6 6 6 5 4 2 2 2 2 3 2
20 19 16 15 15 15 15 15 15 15 14 14 13 13 14 14 13 13 13 13 14 13 12 12 11 11 9 10 10 8 8 9 9 9 9 8 6 5 5 4 4 3 2 1 1 1 2 2 2 3 3 4 4 4 5 5 6 7 7 7 6 5 5 6 9 7 4 10 11 7 5 7 6 6 5 5 5 3 2 1 2 1 1 3 2
19 20 18 14 14 15 15 15 16 15 15 15 15 15 14 14 14 14 13 14 13 12 13 12 12 11 10 11 10 9 8 7 7 6 6 6 5 4 5 4 3 2 1 2 3 4 4 4 4 5 4 5 5 5 5 6 6 7 7 6 6 5 6 8 13 11 5 13 8 4 5 6 6 5 4 4 4 2 1 2 1 0 1 3 3
18 19 19 16 14 15 14 15 16 16 16 16 16 16 15 15 14 14 13 13 13 12 12 12 12 12 12 11 11 10 8 8 7 4 4 4 5 6 5 4 3 2 2 3 4 4 4 4 4 5 5 5 5 5 4 5 5 6 7 5 6 6 7 9 11 9 4 10 4 4 4 4 6 4 3 2 2 1 0 2 1 0 1 2 2
19 19 20 17 15 16 15 16 17 17 17 16 16 16 16 15 14 14 13 12 12 12 12 13 13 14 13 12 12 9 6 9 6 5 6 4 5 6 4 3 2 1 0 2 3 3 4 3 2 1 2 3 4 5 4 5 5 5 5 5 7 7 8 9 8 8 2 4 2 3 2 3 5 4 2 0 1 1 1 1 1 1 1 1 1
20 20 21 17 16 18 17 18 18 17 17 16 15 16 16 15 13 13 13 12 13 12 11 12 12 12 11 10 11 7 6 8 5 5 7 4 4 4 3 3 2 2 1 2 3 4 5 4 4 3 1 2 3 5 4 6 8 6 5 6 7 7 8 8 7 7 2 2 1 2 2 3 5 5 2 2 2 2 2 2 2 2 1 1 2
20 20 20 18 18 18 18 19 19 18 17 16 15 16 16 14 14 13 12 12 13 11 10 12 11 11 9 8 11 9 8 9 7 8 8 4 4 4 4 4 3 3 1 1 2 3 4 3 2 2 3 4 5 6 6 7 8 7 7 7 7 6 7 7 6 7 3 1 1 2 3 4 5 5 3 3 4 3 3 3 3 3 2 2 1
22 21 21 21 20 18 17 18 19 17 17 16 15 16 17 15 15 14 13 12 12 13 12 12 12 12 10 9 11 10 10 9 9 10 8 4 3 4 4 3 2 1 2 3 3 3 6 6 4 5 6 6 7 7 7 6 5 7 7 6 6 6 6 7 6 7 5 3 3 2 4 5 5 5 5 4 6 5 5 5 4 4 3 3 2
26 26 23 21 21 19 17 18 18 16 15 16 15 17 17 16 16 15 14 14 12 13 13 12 13 12 10 10 11 10 10 9 9 10 8 8 6 5 4 3 2 4 5 5 5 5 7 7 6 7 6 6 6 5 5 4 4 6 5 5 6 5 5 7 6 7 5 4 3 3 5 7 6 6 6 5 6 7 6 6 6 5 5 4 4
25 24 23 21 21 20 20 19 18 17 14 14 15 16 16 15 16 15 15 15 14 13 13 12 12 12 10 10 10 9 10 9 9 8 7 9 8 7 5 4 3 4 5 4 3 4 5 5 4 5 5 5 3 3 3 4 4 6 6 6 6 4 4 5 5 6 5 4 5 4 5 7 8 8 8 7 6 7 8 8 8 7 6 6 6
21 22 22 21 20 20 20 19 18 17 15 13 14 14 14 14 15 15 14 14 14 13 13 12 12 12 10 10 10 9 9 9 8 7 6 7 7 6 4 4 3 3 4 3 2 1 1 2 2 2 3 4 3 4 5 5 5 5 6 7 6 6 5 5 5 6 5 5 6 5 6 8 9 9 9 8 7 8 9 9 9 9 8 8 7
22 21 20 20 19 19 18 17 16 16 16 15 14 13 13 14 14 14 13 13 14 12 12 12 12 12 10 11 10 9 9 9 8 7 7 7 6 5 4 4 3 3 3 2 1 1 0 1 2 2 2 3 4 4 5 5 6 5 6 7 7 7 8 7 7 7 6 5 5 5 7 9 8 9 9 8 7 8 9 9 9 10 10 10 9
21 21 20 20 20 19 17 16 16 16 16 15 13 13 13 13 13 13 12 13 12 12 13 12 12 12 11 11 10 9 9 8 8 8 7 7 6 5 5 4 4 3 3 2 1 0 0 1 1 2 3 3 4 5 5 5 6 6 5 6 5 6 7 7 8 8 8 7 5 6 8 8 7 7 8 8 7 7 9 10 10 11 11 11 12
20 20 19 21 21 20 17 16 17 16 16 14 13 13 12 12 12 12 12 13 13 12 14 13 12 12 11 12 11 10 10 9 8 8 8 7 7 6 6 5 4 3 3 2 1 0 1 2 3 3 3 2 4 5 5 5 6 7 7 7 7 7 7 7 9 8 8 8 7 8 8 7 6 6 7 8 7 7 7 9 10 11 12 12 12
19 20 19 22 22 20 19 18 18 17 17 15 14 14 13 12 12 13 12 13 14 13 14 13 13 12 11 12 12 11 11 10 10 9 8 8 7 7 6 5 4 3 2 2 0 1 1 3 5 4 3 2 4 4 4 4 5 6 8 10 10 10 10 9 9 8 9 9 8 8 7 5 4 6 7 7 7 7 7 8 9 11 11 12 12
16 17 18 24 24 21 20 18 18 18 16 16 15 15 14 13 13 13 13 14 15 14 14 14 14 13 12 12 13 13 12 11 12 11 9 8 7 7 6 5 4 3 3 3 1 1 2 3 4 4 3 3 5 5 4 5 6 7 9 10 9 9 10 10 10 9 10 10 8 8 7 5 4 6 7 7 7 7 7 7 7 9 11 12 12
15 16 17 24 24 21 21 19 19 18 16 16 16 15 14 14 14 14 13 14 14 13 14 14 14 15 15 15 14 14 14 13 12 11 10 9 7 6 6 5 4 4 4 3 1 1 2 2 3 4 5 5 7 7 6 6 6 7 8 8 7 8 8 9 11 10 10 10 8 7 8 5 5 7 7 7 7 6 6 7 7 7 9 11 12
17 19 18 22 23 21 22 21 20 19 17 17 16 15 15 15 14 14 14 14 14 14 15 15 15 15 16 16 16 15 15 14 12 11 11 9 7 7 6 5 5 4 3 2 1 1 2 2 3 4 5 6 7 8 7 7 6 6 7 7 6 7 7 8 9 8 9 8 6 7 5 2 4 6 6 7 7 6 6 7 7 7 7 9 11
17 21 20 21 21 21 22 22 21 20 19 18 17 16 16 15 14 13 14 15 16 15 15 16 16 16 16 17 17 16 15 14 12 11 11 9 7 7 6 5 5 3 1 2 1 1 2 2 3 3 4 6 6 8 8 7 6 6 6 6 6 7 6 6 7 6 7 7 7 6 3 3 5 5 4 6 5 6 7 6 7 7 8 8 9
18 22 23 22 22 22 23 22 22 22 20 19 18 17 15 15 14 13 14 15 17 17 16 16 16 16 16 17 17 17 16 13 12 11 10 9 7 6 5 4 3 2 1 2 1 2 2 2 2 2 4 5 6 8 8 8 8 7 6 5 6 7 6 6 7 6 7 8 10 7 6 5 3 2 4 5 4 7 7 6 6 7 7 8 9
18 22 25 24 23 25 24 23 23 22 22 21 20 17 14 14 14 14 15 16 17 18 16 16 16 16 16 16 15 15 15 13 11 11 10 9 7 5 2 1 1 2 2 3 2 3 3 2 2 2 4 5 6 8 9 9 9 9 7 6 6 6 5 6 6 7 6 7 9 8 9 6 3 3 6 2 3 6 6 7 7 6 7 7 8
19 20 24 24 23 24 25 23 23 23 23 21 20 18 15 14 15 15 16 16 17 17 17 16 15 15 15 14 13 14 14 13 12 11 11 9 5 1 1 2 2 3 3 5 5 6 5 4 3 2 4 5 5 8 8 8 10 11 8 6 6 6 6 5 5 5 5 7 8 8 9 7 4 5 6 3 4 6 5 7 8 7 8 8 7
19 19 22 24 23 23 24 23 23 23 23 21 21 19 17 16 16 17 17 18 17 16 17 15 13 13 15 15 14 14 15 15 14 14 12 9 6 5 7 8 7 8 10 9 7 6 6 5 4 3 4 5 6 8 7 6 10 12 9 6 7 7 5 2 3 2 5 8 7 6 7 8 6 3 4 5 7 7 6 7 6 6 8 9 8
18 18 20 23 23 22 23 23 23 23 23 22 20 19 18 18 18 18 18 18 17 15 16 16 15 12 12 14 15 16 16 15 16 15 14 14 13 13 14 14 13 13 14 12 9 6 6 7 5 5 5 5 6 7 7 8 10 9 7 7 9 7 4 3 2 1 5 7 4 4 5 8 9 6 4 5 7 8 6 6 7 6 7 9 10
17 18 19 20 22 22 22 22 22 22 23 20 19 19 18 17 16 16 16 15 15 15 14 14 15 14 12 13 13 13 14 14 13 12 12 14 15 14 14 14 14 14 15 14 13 11 10 9 8 8 7 6 6 6 7 7 7 6 5 6 8 5 4 4 0 2 5 4 2 3 4 7 9 8 7 6 7 7 6 7 9 9 8 9 9
16 18 19 20 20 20 21 21 20 19 19 18 16 16 16 14 13 13 14 13 12 12 13 12 13 13 10 7 6 6 5 6 6 3 4 12 14 14 15 15 15 16 17 17 16 16 15 14 13 11 10 8 6 6 8 6 6 6 4 3 3 3 2 2 2 6 4 2 2 1 2 7 7 6 8 6 6 7 8 9 11 11 11 10 9
16 18 20 20 21 22 20 17 17 17 16 16 15 12 12 13 11 12 12 11 11 11 10 7 7 9 10 8 7 9 8 8 10 8 8 15 17 17 17 16 17 18 18 18 17 16 15 16 17 15 13 11 7 7 9 9 6 4 2 2 2 2 1 1 6 7 1 2 4 2 3 7 5 4 7 5 4 7 10 10 10 12 13 12 11
14 17 19 21 21 17 14 13 15 16 13 13 14 12 12 13 14 14 12 10 8 4 8 16 26 23 14 7 8 10 9 7 7 9 14 19 19 18 19 18 18 19 19 19 19 17 13 13 15 15 14 14 11 9 9 9 7 5 3 2 1 2 1 2 5 4 1 4 5 3 4 7 4 3 7 6 5 8 9 9 10 12 13 13 12
13 16 16 14 8 5 7 11 12 8 6 10 16 17 12 11 11 10 6 5 11 17 16 17 20 15 10 12 11 11 11 12 13 12 15 20 19 18 19 19 18 18 19 21 21 19 17 15 15 15 15 15 14 12 10 9 9 8 7 5 3 3 1 3 3 2 4 6 5 5 7 6 4 4 7 6 6 9 9 8 10 12 12 13 11
15 17 15 2 10 14 7 11 9 1 2 8 14 13 3 1 4 5 8 11 16 15 8 13 13 11 13 15 12 11 11 14 16 16 17 20 18 17 18 18 18 19 20 23 24 22 21 19 17 17 17 15 16 15 13 11 10 9 8 7 5 4 3 1 1 1 3 4 6 9 8 5 5 7 8 6 6 9 8 8 11 12 11 11 9
13 14 8 14 19 11 5 10 9 4 4 4 7 9 2 1 5 6 6 5 3 5 12 17 16 14 15 15 14 13 14 17 19 19 19 19 16 17 20 21 21 22 25 27 27 26 24 22 19 18 18 17 16 16 15 12 11 10 10 9 7 6 6 6 6 4 2 2 5 7 6 6 8 9 8 7 9 9 8 9 11 11 11 9 9
10 13 14 26 22 11 8 9 8 5 6 6 6 10 10 8 10 10 9 12 15 15 16 17 18 18 18 18 16 14 15 18 19 17 17 17 16 17 21 23 24 24 26 28 29 28 27 25 22 21 20 18 17 16 16 15 11 11 12 11 8 7 9 10 10 9 7 4 3 4 5 6 8 8 8 9 10 8 7 9 10 9 10 9 9
16 20 24 31 26 18 14 9 7 7 7 11 9 8 10 12 11 8 8 13 18 19 17 16 18 19 17 17 16 12 12 15 15 13 12 12 14 17 18 21 23 24 25 27 29 29 29 26 22 22 22 19 18 17 17 16 13 11 11 10 11 10 8 8 11 12 9 6 4 3 4 5 6 6 9 10 8 8 10 11 9 7 8 8 8
19 23 27 32 27 19 15 12 11 11 8 6 4 3 5 9 9 7 9 13 17 18 17 17 17 16 15 16 16 13 12 12 12 12 11 11 14 16 16 18 21 23 24 26 28 28 28 26 22 22 23 22 19 18 18 17 15 13 11 11 12 12 10 8 8 9 6 4 3 2 4 7 7 7 9 8 8 12 13 10 8 6 6 7 7
Wind_Direction
147 150 143 143 144 150 153 151 152 146 140 131 129 126 127 127 126 125 117 114 114 112 112 113 112 112 110 106 101 103 113 110 102 99 97 99 100 96 94 95 96 97 98 99 99 98 97 97 97 95 89 94 94 94 97 96 92 83 74 70 68 67 69 71 78 88 92 90 87 87 82 79 67 62 82 100 101 95 87 71 77 100 93 88 94
147 149 142 144 147 152 154 155 152 143 137 132 130 130 130 129 127 121 113 112 112 112 112 113 111 108 102 98 97 100 107 103 96 97 97 101 102 97 95 97 97 99 101 100 100 97 95 97 97 93 91 100 101 102 104 100 92 79 70 65 59 59 58 61 70 83 93 95 91 90 83 79 70 69 89 107 104 95 85 66 68 88 82 80 95
145 146 143 144 147 151 153 153 147 139 137 135 134 133 130 128 126 120 114 112 108 106 107 106 104 101 99 99 99 99 99 97 98 99 99 100 100 98 98 100 101 104 104 102 99 95 95 96 93 93 97 104 109 111 108 98 87 74 63 55 49 50 52 54 57 71 92 102 99 96 88 75 70 77 94 110 108 95 85 69 69 74 73 83 92
141 141 142 141 144 148 151 149 140 136 136 136 135 133 130 126 120 117 113 109 105 101 100 100 101 101 102 102 101 98 94 91 93 94 96 97 98 101 102 105 108 107 105 100 96 97 99 98 97 99 103 110 115 115 107 94 82 68 55 49 46 49 55 57 54 65 81 101 112 117 106 84 69 82 98 105 107 91 77 75 78 73 74 86 85
131 136 138 138 141 143 146 142 134 134 134 135 133 130 125 121 115 111 110 107 105 103 103 103 104 104 103 104 104 104 103 97 87 84 92 97 99 104 107 111 111 107 103 100 103 106 105 105 106 106 109 115 116 112 103 91 76 60 54 51 51 51 54 59 66 76 69 87 123 152 141 114 75 82 96 103 104 87 78 80 85 82 77 80 79
133 138 138 138 141 143 143 136 133 133 131 133 130 127 120 118 115 112 114 113 112 112 111 111 110 109 109 110 108 109 113 107 92 82 89 95 101 105 112 114 109 106 104 106 112 112 112 112 112 113 115 117 114 109 98 84 69 61 59 57 55 49 47 51 61 70 64 13 287 182 165 143 90 81 91 99 102 87 75 72 77 86 76 75 76
137 140 140 140 143 147 143 136 135 130 130 132 129 126 122 120 119 118 119 119 120 119 117 118 117 115 114 111 107 106 109 107 103 101 96 93 101 107 113 113 107 107 110 115 119 119 119 119 119 119 119 118 114 106 91 80 67 63 59 56 48 39 41 35 35 27 7 323 300 244 192 154 104 76 86 91 96 85 67 63 76 96 80 72 80
138 141 141 144 149 149 142 138 134 130 131 130 129 128 125 123 122 122 122 122 123 122 121 122 120 117 115 112 107 105 107 106 110 112 104 95 102 112 115 113 107 108 113 119 123 125 127 128 127 124 123 121 114 103 87 76 64 60 55 48 39 33 32 21 15 2 355 340 315 284 172 149 112 72 89 94 96 89 66 60 93 115 95 71 85
137 137 139 147 149 147 141 136 133 133 132 129 131 130 128 124 123 124 123 124 124 123 123 123 121 119 119 120 116 111 111 111 115 109 104 104 108 116 119 117 111 110 115 120 126 131 135 135 134 131 128 125 114 103 84 72 59 53 47 41 36 30 26 21 14 5 355 333 321 72 124 132 115 85 103 105 101 99 70 75 114 123 105 83 92
135 135 140 144 144 147 140 135 136 134 131 130 130 127 125 123 124 126 125 125 124 123 122 121 121 122 125 125 122 118 117 116 116 106 101 106 113 119 120 122 116 114 118 122 131 136 141 141 142 141 137 133 120 106 83 67 54 44 38 35 34 31 31 30 25 21 13 2 45 97 112 121 116 100 112 112 105 106 87 101 120 128 115 89 83
138 140 138 137 144 147 140 136 136 133 131 130 126 123 122 124 126 127 125 123 122 122 121 122 123 127 125 120 117 114 114 111 108 103 100 103 113 122 121 125 122 120 124 127 134 137 144 147 150 150 149 145 130 115 86 62 46 33 30 31 30 33 33 32 29 26 46 88 91 93 104 114 107 100 112 117 107 98 110 123 123 132 123 81 70
135 136 134 137 143 143 139 134 132 132 131 126 122 122 123 126 126 124 122 119 119 119 119 121 121 124 120 116 119 116 115 113 111 104 101 102 110 123 124 126 127 125 127 132 139 145 155 156 156 152 154 155 144 131 85 50 30 19 20 24 24 23 19 26 23 15 63 96 95 93 101 92 74 104 116 122 98 81 103 120 99 94 106 75 69
136 134 133 135 138 138 135 129 130 131 126 122 123 124 125 126 124 124 122 120 119 120 119 116 117 122 120 119 122 121 117 114 114 110 105 104 109 123 126 126 128 129 128 132 142 153 163 161 158 149 153 162 165 170 54 12 5 2 3 10 10 5 4 20 18 48 91 96 95 96 87 62 71 110 123 127 103 79 96 106 84 80 91 87 84
136 131 129 132 136 136 132 130 132 129 125 124 127 126 125 124 124 125 124 123 122 127 127 121 123 121 118 116 116 116 113 111 114 114 109 108 112 124 129 128 127 130 130 133 145 155 163 161 160 158 168 179 202 254 307 318 339 344 347 354 355 357 1 16 30 101 107 105 104 101 68 61 71 97 120 131 123 89 95 112 101 88 89 109 120
130 126 127 131 134 133 131 131 130 128 129 128 129 127 126 125 126 128 126 128 128 132 130 125 124 117 118 117 112 109 107 110 112 114 114 114 118 124 128 126 129 136 139 144 150 159 176 177 185 203 229 257 269 281 289 303 323 332 339 343 343 347 349 3 36 117 117 117 114 105 66 65 71 78 108 123 131 117 96 114 110 95 116 141 174
124 128 129 130 132 132 130 128 129 129 129 128 130 129 129 129 129 130 130 132 132 132 131 126 122 119 120 117 112 108 105 107 111 115 118 121 123 126 127 127 135 142 136 137 152 181 199 201 211 226 250 277 293 296 299 312 321 331 338 339 340 335 337 355 6 129 125 116 115 121 69 63 68 66 88 104 123 139 123 130 132 125 151 193 257
127 132 131 134 133 131 129 129 132 130 129 129 132 133 134 133 132 134 135 138 137 134 131 128 126 122 120 118 113 108 105 106 113 118 120 124 127 129 129 138 151 144 133 129 153 177 193 206 216 231 248 268 288 300 310 320 323 331 335 339 339 332 333 343 351 11 132 105 106 127 74 62 63 61 78 90 114 141 151 166 166 164 196 235 268
139 137 136 137 134 134 133 137 138 133 134 132 133 136 136 136 137 138 139 144 142 138 137 135 133 128 125 119 115 112 111 109 114 118 122 126 131 137 140 155 165 161 176 170 170 164 186 231 234 243 251 268 286 300 309 319 324 329 332 341 338 335 340 327 334 338 147 102 109 128 73 59 56 58 74 79 100 130 148 185 182 187 232 235 211
146 141 142 141 137 140 140 142 142 140 141 138 140 141 141 142 141 140 141 145 146 145 145 145 140 133 130 126 124 122 116 114 118 119 124 126 129 152 168 179 184 190 211 228 272 297 301 292 292 284 283 290 300 307 311 317 324 330 331 337 339 333 331 327 324 299 170 121 126 129 68 55 47 51 63 69 84 107 112 96 172 197 241 199 202
151 147 146 148 146 147 150 150 147 147 146 145 146 146 148 147 143 142 142 145 147 148 151 150 144 140 139 136 132 128 124 121 123 125 130 135 142 178 205 202 199 224 266 300 301 304 297 288 284 286 291 295 305 307 310 319 327 338 340 343 344 330 319 324 324 310 156 134 130 103 68 52 35 41 50 58 70 95 97 49 121 175 55 170 200
160 158 152 151 157 156 158 157 154 153 150 149 150 152 153 150 148 146 144 146 147 148 149 146 143 140 137 133 127 131 137 126 128 153 157 164 178 191 221 227 218 246 296 310 315 319 313 305 289 282 286 294 304 300 300 321 338 355 358 357 336 326 327 324 320 324 124 134 110 86 81 41 21 22 40 51 63 91 160 20 83 47 49 166 192
169 167 156 152 166 168 164 161 158 155 150 149 154 156 153 152 153 149 147 147 147 145 139 137 136 134 135 131 134 144 140 134 145 173 173 196 204 199 217 218 209 218 3 3 11 15 17 27 14 336 305 299 291 286 285 303 323 356 6 352 332 329 331 327 320 331 51 133 109 101 76 22 6 0 5 33 102 123 216 315 1 358 25 174 159
170 162 152 158 177 176 168 164 159 156 154 153 159 156 149 156 158 152 151 149 149 146 141 147 144 142 144 137 149 167 153 161 178 163 175 201 189 188 188 176 168 155 122 73 73 61 42 48 53 51 4 300 282 288 287 284 289 311 343 338 335 339 328 323 322 331 15 132 124 80 27 347 347 349 311 252 201 188 214 262 276 279 315 214 179
163 152 155 173 183 177 170 166 158 157 158 157 161 155 152 161 162 161 161 155 153 155 164 171 166 167 168 152 162 175 163 178 188 168 190 200 155 167 166 162 151 138 116 2 57 49 10 2 7 359 329 295 284 292 285 274 274 284 315 328 328 330 322 322 322 334 5 18 338 359 342 328 329 339 313 260 223 206 211 238 254 251 257 247 224
162 161 174 183 177 171 164 159 155 159 161 160 162 158 161 166 166 172 171 168 166 169 184 182 180 183 177 170 171 174 170 182 187 179 198 203 177 182 177 184 167 166 316 318 332 329 319 327 310 304 323 309 285 286 285 280 287 282 292 316 318 315 323 330 327 334 333 309 331 331 332 338 325 324 321 275 234 221 219 230 245 247 245 249 248
172 172 177 177 169 165 158 157 158 162 164 162 163 162 167 169 170 175 173 178 177 175 186 182 182 183 175 177 172 171 174 181 186 184 196 201 212 222 229 260 231 248 273 303 308 273 287 311 292 282 311 319 288 285 294 296 323 315 314 326 320 322 333 333 330 332 324 304 331 328 327 338 330 321 319 294 251 233 230 233 238 245 246 248 245
169 164 165 166 165 163 160 164 165 161 164 165 162 165 172 172 170 175 174 178 179 178 183 180 181 179 177 181 173 174 178 182 191 189 191 194 206 217 230 245 222 234 246 278 292 250 281 313 298 283 306 328 314 324 340 334 339 339 336 324 315 326 330 333 335 331 324 308 314 314 320 334 333 326 318 302 269 244 240 238 238 245 247 248 239
157 156 159 162 164 163 160 165 165 157 163 167 162 170 176 172 171 176 179 176 178 180 181 182 184 180 180 182 176 179 182 185 195 195 190 193 202 202 205 214 204 213 218 231 253 227 302 331 350 335 334 341 349 12 6 343 341 338 327 326 338 343 332 341 337 328 325 307 303 306 319 332 332 331 327 309 281 257 247 243 238 237 237 242 238
150 154 157 158 164 164 159 164 166 160 167 170 168 176 177 173 174 177 182 176 177 182 181 184 186 183 183 183 181 184 187 189 192 192 191 193 197 195 193 194 191 201 204 208 216 172 47 330 329 339 356 357 4 20 8 344 341 334 325 338 353 348 344 350 339 334 336 315 296 305 319 325 325 329 335 324 295 271 257 251 240 229 228 236 240
144 151 157 157 162 165 164 167 169 167 170 172 172 179 178 176 176 179 182 176 178 185 181 184 189 189 188 186 186 189 189 188 191 189 191 195 193 194 192 188 192 191 194 201 206 198 299 310 331 343 350 4 13 11 7 360 343 334 337 342 348 346 349 348 337 337 338 333 320 309 308 312 319 326 334 338 319 290 270 261 248 234 230 233 238
147 152 160 158 160 166 171 171 173 176 173 174 177 179 180 179 178 181 183 179 183 186 183 188 193 193 196 191 187 193 192 189 192 190 191 194 193 197 192 191 196 187 194 195 168 260 273 331 354 346 340 4 3 358 8 4 339 343 352 354 2 2 3 355 343 340 339 345 342 317 299 302 329 332 328 338 334 314 289 273 262 248 238 235 237
156 159 166 161 162 168 175 176 177 181 175 177 182 180 182 183 182 184 186 185 186 186 185 191 195 193 199 198 190 194 198 194 191 191 195 197 194 195 190 187 191 186 202 193 139 279 277 327 336 338 358 10 337 333 356 347 336 352 358 4 11 4 2 356 344 345 341 339 342 338 323 311 341 346 333 331 333 328 314 291 272 263 251 245 243
165 168 166 160 166 168 175 181 180 184 180 179 184 181 183 186 187 189 191 191 188 189 190 194 197 192 198 203 196 196 202 200 195 192 193 199 197 194 191 189 186 180 190 203 246 337 330 329 330 336 355 353 333 331 348 350 350 3 6 9 10 360 356 348 344 350 341 333 345 359 347 331 345 352 341 329 328 323 319 314 291 274 263 256 252
170 175 167 158 167 171 175 184 184 188 184 182 188 185 184 188 192 194 195 194 191 194 197 198 199 196 200 206 201 199 204 202 199 196 191 197 201 198 198 196 194 195 206 220 221 313 313 326 340 346 348 345 342 344 355 1 358 1 3 5 2 356 353 343 346 349 338 340 354 352 338 339 353 354 346 333 330 321 311 313 309 293 276 266 258
173 178 175 163 168 174 178 185 187 190 188 187 191 190 191 192 194 197 197 196 196 200 204 203 201 200 204 209 206 202 205 201 200 202 197 197 203 204 202 201 205 199 216 229 179 259 301 330 342 355 348 338 337 339 345 348 348 350 349 355 353 345 344 342 344 342 333 335 341 331 326 7 359 344 341 328 323 330 325 313 311 311 298 281 267
180 178 182 174 171 176 181 185 187 190 191 192 194 194 196 195 195 199 202 201 201 205 207 207 205 204 205 212 211 204 204 203 201 205 202 197 201 208 206 207 208 185 205 243 204 279 324 347 343 356 341 330 329 331 331 329 334 338 340 349 341 334 341 343 339 337 331 331 346 352 0 37 2 345 348 337 331 342 341 329 318 314 312 302 283
189 180 183 183 178 181 185 187 187 188 191 194 196 199 200 198 199 202 206 208 207 209 211 210 209 208 207 211 215 209 206 206 205 209 206 200 199 211 217 215 210 177 267 281 260 286 305 319 323 336 331 328 325 325 326 324 324 327 334 337 331 335 341 341 334 322 325 345 2 0 341 355 22 12 358 345 339 346 347 347 333 313 314 311 295
196 185 184 186 183 184 188 189 189 189 191 194 197 201 202 200 205 209 212 215 214 214 215 215 212 211 211 212 216 214 207 206 210 214 214 207 198 209 230 190 36 11 324 299 279 266 268 277 294 308 319 324 323 320 319 317 316 315 321 324 328 334 330 334 328 312 329 358 357 343 335 356 77 32 2 344 332 351 346 342 340 324 328 328 308
196 191 187 188 187 186 188 189 189 189 191 195 196 198 201 204 211 216 219 221 221 220 220 222 219 214 215 214 213 214 210 207 208 212 218 213 192 194 23 72 23 341 283 261 257 256 245 240 269 281 295 309 305 305 304 306 310 305 305 315 326 324 315 329 323 315 358 8 348 339 340 350 20 24 19 20 358 358 345 332 332 324 326 334 326
194 193 190 190 191 187 188 189 189 189 190 194 195 195 199 204 211 216 221 224 224 226 226 228 227 219 217 216 213 213 212 209 206 207 210 202 188 202 211 206 217 231 231 229 233 260 269 250 251 259 273 289 291 299 297 295 305 300 298 309 320 316 295 313 334 326 9 4 348 344 344 334 340 18 20 358 345 337 334 330 326 324 325 326 323
194 197 195 193 193 190 189 190 189 189 190 191 192 194 198 202 209 215 219 223 224 227 228 228 229 226 221 216 213 215 213 209 208 205 201 201 205 210 211 210 213 222 230 229 225 242 265 255 243 240 252 269 282 302 298 290 301 301 306 318 324 318 260 251 326 317 354 1 350 350 357 336 339 11 8 337 327 320 327 329 319 316 318 317 316
196 199 202 198 195 193 191 191 189 190 192 192 193 197 202 204 210 217 221 226 227 227 230 230 229 228 227 222 220 221 216 214 215 207 204 215 219 218 217 215 216 226 232 232 225 222 232 239 241 234 228 240 256 281 292 290 305 320 329 322 329 328 240 219 266 306 332 352 339 349 8 341 340 359 352 327 322 323 326 324 316 310 305 304 305
202 202 207 206 200 195 193 191 188 190 194 195 197 201 208 213 218 226 230 232 234 235 235 236 234 234 244 256 272 299 290 278 296 307 248 246 241 232 227 222 221 231 235 234 227 219 218 219 225 231 226 228 233 247 265 269 291 318 322 293 323 342 259 170 346 317 322 338 325 343 13 345 335 340 340 321 306 308 304 308 310 309 307 303 300
210 208 208 208 204 199 193 186 183 190 197 197 200 206 213 220 228 235 238 238 241 244 243 265 335 352 346 331 305 311 311 318 335 329 264 251 248 241 236 229 225 228 234 238 235 227 223 217 217 222 223 223 220 225 237 242 254 283 297 266 290 316 270 39 335 325 349 339 330 359 359 336 321 340 348 327 297 303 304 311 309 303 304 305 304
232 224 214 210 213 204 184 176 178 186 196 196 200 209 214 218 226 236 238 237 250 315 2 6 13 16 359 306 263 268 264 262 280 264 246 244 245 246 243 238 231 228 230 236 239 238 238 235 228 224 223 221 218 219 221 223 226 223 221 234 249 254 222 11 343 331 334 319 325 351 341 318 304 358 349 328 316 316 315 316 308 302 304 306 304
263 250 238 219 203 83 105 182 187 170 172 188 200 207 214 217 224 245 273 352 14 22 19 358 356 353 308 270 248 244 244 241 240 239 243 241 241 247 248 246 243 239 239 239 238 236 234 238 241 236 233 227 225 229 223 212 213 220 218 209 212 228 249 5 5 323 309 315 319 326 321 309 314 344 332 318 318 320 317 307 304 307 305 300 298
266 267 274 238 94 69 86 199 210 134 141 191 205 209 222 270 239 300 346 17 25 19 335 286 286 286 281 275 259 244 244 244 239 235 238 238 238 242 243 245 245 241 244 245 240 236 231 230 235 237 235 230 229 239 241 219 206 213 214 208 211 216 219 252 277 279 310 305 305 313 311 306 318 325 317 303 307 312 305 301 311 312 301 293 297
272 281 313 76 85 80 122 195 212 217 197 188 212 213 210 332 230 248 272 253 248 271 262 257 259 267 272 272 263 250 246 248 244 239 240 240 235 235 236 238 235 229 234 241 241 237 233 229 229 230 231 229 228 240 252 240 213 203 200 201 206 212 217 219 222 230 251 282 296 299 295 303 312 314 307 294 302 302 289 303 314 308 301 298 299
347 353 43 80 81 80 125 179 199 183 188 192 218 219 213 227 224 216 226 233 237 249 254 250 251 259 261 260 255 242 241 249 251 249 249 247 245 246 245 240 235 231 232 238 241 239 235 231 229 227 226 227 226 232 250 257 241 212 197 197 202 212 222 219 219 221 223 239 270 281 292 309 309 306 300 296 300 291 284 305 307 301 304 300 294
23 19 48 78 79 78 105 152 163 132 164 195 221 232 225 236 235 224 235 245 251 261 271 270 266 267 270 273 272 261 255 259 262 264 262 257 259 257 251 247 244 241 239 239 241 241 237 233 231 229 225 223 224 224 235 253 261 241 216 205 201 205 217 219 215 216 219 227 241 279 306 311 305 300 299 296 294 290 294 298 288 289 305 292 285
37 34 56 82 84 83 109 129 122 117 133 170 216 270 256 258 260 265 267 259 260 270 286 294 291 292 294 297 299 294 282 270 265 269 271 269 267 260 257 259 255 248 244 243 242 241 240 236 233 231 225 219 219 220 223 236 255 255 237 221 208 206 216 223 217 213 216 223 236 287 296 294 293 292 300 302 293 290 289 285 271 264 297 294 281